Hourly Weather Lugovaya

Today, 18 May, Tuesday

Time Temperature Precipitation Wind Pressure Humidity
00:00 +18°C° 0 mm 1 mps 748 mmHg 72%
01:00 +16°C° 0 mm 1 mps 748 mmHg 76%
02:00 +15°C° 0 mm 2 mps 748 mmHg 80%
03:00 +15°C° 0 mm 2 mps 749 mmHg 84%
04:00 +14°C° 0 mm 1 mps 749 mmHg 87%
05:00 +16°C° 0 mm 2 mps 749 mmHg 80%
06:00 +17°C° 0 mm 2 mps 749 mmHg 74%
07:00 +18°C° 0 mm 3 mps 749 mmHg 68%
08:00 +19°C° 0 mm 3 mps 750 mmHg 64%
09:00 +20°C° 0 mm 3 mps 750 mmHg 60%
10:00 +21°C° 0 mm 4 mps 750 mmHg 55%
11:00 +21°C° 0 mm 4 mps 750 mmHg 54%
12:00 +21°C° 0 mm 4 mps 751 mmHg 53%
13:00 +21°C° 0 mm 4 mps 751 mmHg 52%
14:00 +22°C° 0 mm 4 mps 751 mmHg 49%
15:00 +22°C° 0 mm 4 mps 751 mmHg 46%
16:00 +22°C° 0 mm 4 mps 751 mmHg 43%
17:00 +22°C° 0 mm 3 mps 752 mmHg 47%
18:00 +21°C° 0 mm 3 mps 752 mmHg 50%
19:00 +20°C° 0 mm 3 mps 752 mmHg 54%
20:00 +18°C° 0 mm 2 mps 752 mmHg 63%
21:00 +16°C° 0 mm 2 mps 753 mmHg 71%
22:00 +14°C° 0 mm 1 mps 753 mmHg 80%
23:00 +14°C° 0 mm 1 mps 753 mmHg 81%

Tomorrow, 19 May, Wednesday

Time Temperature Precipitation Wind Pressure Humidity
00:00 +13°C° 0 mm 2 mps 754 mmHg 81%
01:00 +12°C° 0 mm 2 mps 754 mmHg 82%
02:00 +12°C° 0 mm 2 mps 754 mmHg 83%
03:00 +11°C° 0 mm 1 mps 755 mmHg 83%
04:00 +10°C° 0 mm 1 mps 755 mmHg 84%
05:00 +12°C° 0 mm 2 mps 755 mmHg 76%
06:00 +13°C° 0 mm 2 mps 755 mmHg 68%
07:00 +15°C° 0 mm 2 mps 755 mmHg 60%
08:00 +17°C° 0 mm 2 mps 755 mmHg 54%
09:00 +18°C° 0 mm 2 mps 755 mmHg 48%
10:00 +20°C° 0 mm 2 mps 755 mmHg 41%
11:00 +21°C° 0 mm 2 mps 755 mmHg 38%
12:00 +23°C° 0 mm 2 mps 755 mmHg 35%
13:00 +24°C° 0 mm 2 mps 755 mmHg 32%
14:00 +25°C° 0 mm 1 mps 754 mmHg 32%
15:00 +25°C° 0 mm 1 mps 754 mmHg 31%
16:00 +25°C° 0 mm 1 mps 754 mmHg 30%
17:00 +24°C° 0 mm 1 mps 754 mmHg 35%
18:00 +23°C° 0 mm 1 mps 754 mmHg 40%
19:00 +22°C° 0 mm 1 mps 753 mmHg 45%
20:00 +20°C° 0 mm 1 mps 754 mmHg 50%
21:00 +18°C° 0 mm 1 mps 754 mmHg 54%
22:00 +16°C° 0 mm 1 mps 754 mmHg 59%
23:00 +15°C° 0 mm 1 mps 754 mmHg 60%

Day after tomorrow, 20 May, Thursday

Time Temperature Precipitation Wind Pressure Humidity
00:00 +15°C° 0 mm 1 mps 754 mmHg 61%
01:00 +14°C° 0 mm 1 mps 754 mmHg 62%
02:00 +14°C° 0 mm 1 mps 754 mmHg 63%
03:00 +13°C° 0 mm 1 mps 754 mmHg 64%
04:00 +13°C° 0 mm 1 mps 754 mmHg 66%
05:00 +14°C° 0 mm 1 mps 754 mmHg 61%
06:00 +16°C° 0 mm 1 mps 754 mmHg 57%
07:00 +19°C° 0 mm 1 mps 754 mmHg 52%
08:00 +21°C° 0 mm 1 mps 754 mmHg 47%
09:00 +23°C° 0 mm 1 mps 754 mmHg 41%
10:00 +25°C° 0 mm 1 mps 754 mmHg 35%
11:00 +26°C° 0 mm 1 mps 753 mmHg 33%
12:00 +26°C° 0 mm 2 mps 753 mmHg 30%
13:00 +27°C° 0 mm 2 mps 753 mmHg 27%
14:00 +28°C° 0 mm 2 mps 752 mmHg 27%
15:00 +28°C° 0 mm 1 mps 752 mmHg 27%
16:00 +28°C° 0 mm 1 mps 752 mmHg 27%
17:00 +27°C° 0 mm 1 mps 751 mmHg 33%
18:00 +26°C° 0 mm 1 mps 751 mmHg 39%
19:00 +24°C° 0 mm 1 mps 751 mmHg 45%
20:00 +22°C° 0 mm 1 mps 751 mmHg 51%
21:00 +20°C° 0 mm 1 mps 751 mmHg 57%
22:00 +18°C° 0 mm 1 mps 751 mmHg 63%
23:00 +18°C° 0 mm 1 mps 751 mmHg 65%

21 May, Friday

Time Temperature Precipitation Wind Pressure Humidity
00:00 +16°C° 0 mm 1 mps 751 mmHg 68%
01:00 +16°C° 0 mm 1 mps 751 mmHg 70%
02:00 +15°C° 0 mm 1 mps 751 mmHg 71%
03:00 +15°C° 0 mm 1 mps 751 mmHg 72%
04:00 +14°C° 0 mm 1 mps 751 mmHg 74%
05:00 +16°C° 0 mm 1 mps 751 mmHg 68%
06:00 +19°C° 0 mm 1 mps 751 mmHg 62%
07:00 +21°C° 0 mm 1 mps 751 mmHg 56%
08:00 +21°C° 0 mm 2 mps 751 mmHg 49%
09:00 +24°C° 0 mm 2 mps 751 mmHg 42%
10:00 +26°C° 0 mm 3 mps 750 mmHg 36%
11:00 +27°C° 0 mm 3 mps 750 mmHg 33%
12:00 +28°C° 0 mm 3 mps 750 mmHg 31%
13:00 +28°C° 0 mm 4 mps 749 mmHg 28%
14:00 +28°C° 0 mm 4 mps 749 mmHg 28%
15:00 +28°C° 0 mm 4 mps 749 mmHg 28%
16:00 +28°C° 0 mm 4 mps 748 mmHg 27%
17:00 +27°C° 0 mm 4 mps 748 mmHg 32%
18:00 +26°C° 0 mm 3 mps 748 mmHg 36%
19:00 +24°C° 0 mm 2 mps 748 mmHg 41%
20:00 +21°C° 0 mm 2 mps 747 mmHg 46%
21:00 +21°C° 0 mm 1 mps 747 mmHg 52%
22:00 +19°C° 0 mm 1 mps 747 mmHg 57%
23:00 +18°C° 0 mm 1 mps 747 mmHg 62%

22 May, Saturday

Time Temperature Precipitation Wind Pressure Humidity
00:00 +16°C° 0 mm 1 mps 747 mmHg 67%
01:00 +16°C° 0 mm 2 mps 747 mmHg 71%
02:00 +15°C° 0.1 mm 2 mps 747 mmHg 78%
03:00 +15°C° 0.1 mm 2 mps 747 mmHg 84%
04:00 +14°C° 0.1 mm 2 mps 747 mmHg 91%
05:00 +14°C° 0.2 mm 2 mps 747 mmHg 90%
06:00 +14°C° 0.2 mm 3 mps 747 mmHg 89%
07:00 +16°C° 0.2 mm 3 mps 747 mmHg 88%
08:00 +17°C° 0.2 mm 4 mps 747 mmHg 82%
09:00 +18°C° 0.2 mm 4 mps 747 mmHg 75%
10:00 +20°C° 0.2 mm 4 mps 747 mmHg 69%
11:00 +20°C° 0.4 mm 4 mps 747 mmHg 64%
12:00 +21°C° 0.4 mm 4 mps 747 mmHg 59%
13:00 +22°C° 0.4 mm 4 mps 747 mmHg 54%
14:00 +22°C° 0 mm 4 mps 748 mmHg 53%
15:00 +21°C° 0 mm 4 mps 748 mmHg 51%
16:00 +21°C° 0 mm 4 mps 748 mmHg 49%
17:00 +20°C° 0 mm 4 mps 748 mmHg 55%
18:00 +20°C° 0 mm 4 mps 748 mmHg 60%
19:00 +19°C° 0 mm 4 mps 749 mmHg 66%
20:00 +18°C° 0 mm 4 mps 749 mmHg 71%
21:00 +17°C° 0 mm 3 mps 750 mmHg 76%
22:00 +16°C° 0 mm 2 mps 750 mmHg 82%
23:00 +15°C° 0 mm 2 mps 750 mmHg 86%

23 May, Sunday

Time Temperature Precipitation Wind Pressure Humidity
00:00 +14°C° 0 mm 2 mps 751 mmHg 91%
01:00 +14°C° 0 mm 2 mps 751 mmHg 95%
02:00 +13°C° 0 mm 1 mps 752 mmHg 94%
03:00 +13°C° 0 mm 1 mps 752 mmHg 94%
04:00 +12°C° 0 mm 1 mps 752 mmHg 93%
05:00 +14°C° 0 mm 1 mps 753 mmHg 83%
06:00 +15°C° 0 mm 1 mps 753 mmHg 73%
07:00 +16°C° 0 mm 1 mps 754 mmHg 64%
08:00 +19°C° 0 mm 1 mps 754 mmHg 54%
09:00 +21°C° 0 mm 1 mps 754 mmHg 45%
10:00 +22°C° 0 mm 1 mps 754 mmHg 36%
11:00 +23°C° 0 mm 1 mps 754 mmHg 34%
12:00 +24°C° 0 mm 1 mps 754 mmHg 31%
13:00 +25°C° 0 mm 1 mps 754 mmHg 29%
14:00 +25°C° 0 mm 1 mps 754 mmHg 29%
15:00 +25°C° 0 mm 1 mps 754 mmHg 29%
16:00 +25°C° 0 mm 1 mps 754 mmHg 29%
17:00 +24°C° 0 mm 1 mps 754 mmHg 35%
18:00 +23°C° 0 mm 1 mps 754 mmHg 40%
19:00 +22°C° 0 mm 1 mps 754 mmHg 46%
20:00 +20°C° 0 mm 1 mps 754 mmHg 49%
21:00 +18°C° 0 mm 1 mps 754 mmHg 53%
22:00 +15°C° 0 mm 1 mps 754 mmHg 57%
23:00 +15°C° 0 mm 1 mps 754 mmHg 60%
Show more

We Need Your Consent

Meteoprog and our Service Providers may store and access personal data such as cookies, device identifiers or other similar technologies on your device and process such data to personalise content and ads, as well as provide social media features and to analyse the traffic.

  • Store and/or access information on your device

    Cookies, device identifiers or other information can be stored or accessed on your device for the purposes indicated above.

  • Personalised ads and content, ad and content measurement, audience insights, and products development

    Ads and content can be personalised based on a profile. More data can be added to better personalise ads and content. Ad and content performance can be measured. Insights about the audience who saw the ads and content can be derived. Such data can be used to develop or improve user’s experience, systems and software.

By clicking ‘I Agree’ you will allow the use of indicated cookies, device identifiers, web beacons or other similar technologies. Your settings can be changed in the browser on your device.

For certain purposes, legitimate interests may be relied on, rather than consent. You can read more about this in our Privacy and Cookie Policy.